Flag for Portugal Weather past 2 weeks in Funchal, Madeira, Portugal

Now
59 °F

Passing clouds.


Feels Like: 57 °F
Forecast: 59 / 64 °F
Wind: 10 mph from North

Location: Aeroporto Da Madeira

Current Time: Jan 30, 2015 at 1:32:23 AM

Latest Report: Jan 30, 2015 at 1:00 AM


Visibility: N/A

Pressure: 30.36 "Hg

Humidity: 77%

Dew point: 52 °F

Location of FunchalLocation

Historic Weather in Funchal — Graph

°F

Funchal temperature yesterday

Maximum temperature yesterday: 63 °F (at 12:30 PM)
Minimum temperature yesterday: 57 °F (at 12:00 AM)
Average temperature yesterday: 59 °F

Past Weeks' High & Low Weather Summary

 TemperatureHumidityPressure
High66 °F (Jan 18, 11:30 AM)88% (Jan 16, 12:00 AM)30.54 "Hg (Jan 16, 12:00 AM)
Low54 °F (Jan 15, 1:30 AM)45% (Jan 17, 12:00 PM)30.18 "Hg (Jan 18, 2:30 PM)
Average58 °F68%30.37 "Hg
* Reported Midnight between Jan 14 and Jan 15 — Midnight between Jan 29 and Jan 30, Funchal, Weather by CustomWeather, © 2014

Note: Actual official high and low records may vary slightly from our data, if they occured in-between our weather recording intervals... More about our weather records

Advertising

Funchal weather history for previous 24 hours

 ConditionsComfort  
Time TempWeatherWind HumidityBarometerVisibility
12:00 AM
Jan 30
59 °FPassing clouds.9 mph82%30.39 "HgN/A
11:30 PM
Jan 29
59 °FPassing clouds.9 mph82%30.39 "HgN/A
11:00 PM59 °FPassing clouds.9 mph82%30.39 "HgN/A
10:30 PM59 °FPassing clouds.12 mph82%30.39 "HgN/A
10:00 PM59 °FSprinkles. Passing clouds.9 mph82%30.39 "HgN/A
9:00 PM59 °FPassing clouds.10 mph82%30.39 "HgN/A
8:30 PM59 °FPassing clouds.12 mph82%30.39 "HgN/A
8:00 PM59 °FPassing clouds.10 mph82%30.39 "HgN/A
7:30 PM59 °FScattered showers. Scattered clouds.13 mph82%30.36 "Hg4 mi
7:00 PM59 °FSprinkles. Scattered clouds.12 mph82%30.36 "Hg4 mi
6:30 PM59 °FScattered showers. Scattered clouds.9 mph88%30.36 "Hg3 mi
6:00 PM59 °FScattered clouds.8 mph88%30.36 "Hg3 mi
5:30 PM61 °FScattered clouds.8 mph77%30.36 "HgN/A
5:00 PM61 °FScattered clouds.9 mph77%30.36 "HgN/A
4:30 PM61 °FPassing clouds.12 mph77%30.36 "HgN/A
4:00 PM61 °FScattered showers. Scattered clouds.12 mph77%30.36 "Hg3 mi
3:30 PM63 °FScattered clouds.9 mph73%30.36 "HgN/A
3:00 PM63 °FScattered clouds.10 mph73%30.36 "HgN/A
2:30 PM63 °FScattered clouds.12 mph73%30.39 "HgN/A
2:00 PM61 °FScattered clouds.14 mph77%30.39 "HgN/A
1:30 PM61 °FScattered clouds.12 mph77%30.42 "Hg5 mi
1:00 PM63 °FScattered showers. Scattered clouds.14 mph68%30.42 "HgN/A
12:30 PM63 °FPassing clouds.15 mph68%30.42 "HgN/A
12:00 PM61 °FScattered clouds.14 mph72%30.45 "HgN/A
11:30 AM59 °FScattered clouds.14 mph77%30.45 "Hg6 mi
11:00 AM61 °FScattered clouds.13 mph72%30.45 "Hg6 mi
10:30 AM57 °FScattered clouds.10 mph82%30.45 "Hg6 mi
10:00 AM59 °FScattered clouds.13 mph72%30.42 "HgN/A
9:30 AM59 °FPassing clouds.13 mph72%30.42 "HgN/A
9:00 AM57 °FPassing clouds.13 mph77%30.42 "HgN/A
8:30 AM57 °FPassing clouds.10 mph72%30.42 "HgN/A
8:00 AM57 °FPassing clouds.14 mph72%30.42 "HgN/A
7:30 AM57 °FPassing clouds.13 mph67%30.39 "HgN/A
7:00 AM57 °FPassing clouds.13 mph67%30.39 "HgN/A
6:30 AM57 °FPassing clouds.16 mph67%30.39 "HgN/A
6:00 AM57 °FPassing clouds.14 mph72%30.39 "HgN/A
5:30 AM57 °FPassing clouds.15 mph72%30.39 "HgN/A
5:00 AM57 °FPassing clouds.14 mph77%30.39 "HgN/A
4:30 AM57 °FPassing clouds.14 mph77%30.42 "HgN/A
4:00 AM57 °FSprinkles. Passing clouds.13 mph82%30.42 "HgN/A
3:30 AM57 °FSprinkles. Passing clouds.14 mph82%30.42 "HgN/A
3:00 AM57 °FSprinkles. Passing clouds.12 mph82%30.42 "HgN/A
2:30 AM57 °FSprinkles. Passing clouds.14 mph82%30.42 "HgN/A
2:00 AM57 °FPassing clouds.13 mph82%30.42 "HgN/A
1:30 AM57 °FSprinkles. Passing clouds.14 mph82%30.42 "HgN/A
1:00 AM57 °FPassing clouds.12 mph82%30.42 "HgN/A
Weather by CustomWeather, © 2014

See weather overviewHow to use our weather pages